Вернуться в каталог

CZ-4 DEB

АктивенSSO
NORAD 20887·DEBRIS·🇨🇳 China

Запущен Sep 3, 1990 с Taiyuan Satellite Launch Center

Loading…

Ближайшие Пролёты (ближайшие 24 часа)

TLE

СвежийSource: Space-Track

Эпоха: Sep 14, 2026, 12:32 UTC

1 20887U 90081AX  26257.52276963  .00001774  00000-0  43631-3 0  9994
2 20887  98.4088 269.2432 0015534 241.5330 271.6575 14.53452750872576

Отслеживайте CZ-4 DEB в реальном времени с AllMySat

Download on the App Store